Terug naar catalogus

STARLINK-5933

ActiefCommunicatieVLEO
NORAD 55961·PAYLOAD·🇺🇸 United States

Gelanceerd Mar 17, 2023 vanaf Vandenberg Space Force Base

Loading…

Volgende Passages (komende 24 uur)

TLE

VersSource: CelesTrak SupGP

Epoch: Sep 14, 2026, 20:45 UTC

1 55961C 23037AZ  26257.86506944 -.00037399  00000+0 -31349-2 0  2576
2 55961  70.0011 147.3912 0002826 270.7239  31.0000 14.98341895    19

Volg STARLINK-5933 in realtime met AllMySat

Download on the App Store